Change the Weather History Date:

Friday, August 3, 2012

  Actual Average Record
Temperature  
Mean Temperature 81 °F -  
Max Temperature 89 °F 84 °F 96 °F (1998)
Min Temperature 73 °F 64 °F 68 °F (1997)
Cooling Degree Days 16    
Growing Degree Days 31 (Base 50)    
Moisture  
Dew Point 70 °F    
Average Humidity 68    
Maximum Humidity 88    
Minimum Humidity 49    
Precipitation  
Precipitation 0.00 in 0.06 in - ()
Sea Level Pressure  
Sea Level Pressure 29.97 in    
Wind  
Wind Speed 4 mph ()    
Max Wind Speed 12 mph    
Max Gust Speed -    
Averages and records for this station are not official NWS values.
T = Trace of Precipitation, MM = Missing Value Source: Averaged Metar Reports

Daily Weather History Graph

Daily Weather History Graph

Search for Another Location

Airport or City:

Trip Planner

Search our weather history database for the weather conditions in past years. The results will help you decide how hot, cold, wet, or windy it might be!

Date:

Astronomy

Aug. 03, 2012 Rise Set
Actual Time 6:01 AM CEST 8:16 PM CEST
Civil Twilight 5:30 AM CEST 8:46 PM CEST
Nautical Twilight 4:52 AM CEST 9:24 PM CEST
Astronomical Twilight 4:11 AM CEST 10:05 PM CEST
Moon 8:44 PM CEST (8/3) 7:26 AM CEST (8/3)
Length of Visible Light 15h 16m
Length of Day
14h 14m
Full, 98% of the Moon is Illuminated
Aug 3
Full
Aug 9
Last Quarter
Aug 17
New
Aug 24
First Quarter
Aug 31
Full

Hourly Weather History & Observations

Time (CEST) Temp. Heat Index Dew Point Humidity Pressure Visibility Wind Dir Wind Speed Gust Speed Precip Events Conditions
12:20 AM 78.8 °F - 69.8 °F 74% 29.98 in - Variable 1.2 mph - N/A   Clear
12:50 AM 78.8 °F - 71.6 °F 78% 29.98 in - Variable 1.2 mph - N/A   Clear
1:20 AM 78.8 °F - 71.6 °F 78% 29.98 in - Variable 1.2 mph - N/A   Clear
1:50 AM 78.8 °F - 71.6 °F 78% 29.98 in - Calm Calm - N/A   Clear
2:20 AM 78.8 °F - 69.8 °F 74% 29.98 in - NE 2.3 mph - N/A   Clear
2:50 AM 77.0 °F - 69.8 °F 78% 29.98 in - NE 3.5 mph - N/A   Clear
3:20 AM 77.0 °F - 71.6 °F 83% 29.98 in - NE 3.5 mph - N/A   Clear
3:50 AM 77.0 °F - 71.6 °F 83% 29.98 in - NE 1.2 mph - N/A   Clear
4:20 AM 75.2 °F - 69.8 °F 83% 29.98 in - Calm Calm - N/A   Clear
4:50 AM 75.2 °F - 69.8 °F 83% 29.98 in - WNW 2.3 mph - N/A   Clear
5:20 AM 75.2 °F - 69.8 °F 83% 29.98 in - Calm Calm - N/A   Clear
5:50 AM 73.4 °F - 69.8 °F 88% 29.98 in - Variable 1.2 mph - N/A   Clear
6:20 AM 73.4 °F - 68.0 °F 83% 29.98 in - Variable 2.3 mph - N/A   Clear
6:50 AM 75.2 °F - 68.0 °F 78% 29.98 in - Variable 1.2 mph - N/A   Clear
7:20 AM 77.0 °F - 68.0 °F 74% 29.98 in - NE 2.3 mph - N/A   Clear
7:50 AM 78.8 °F - 71.6 °F 78% 29.98 in - Variable 2.3 mph - N/A   Clear
8:20 AM 80.6 °F 84.6 °F 71.6 °F 74% 29.98 in - Variable 2.3 mph - N/A   Clear
8:50 AM 82.4 °F 87.2 °F 71.6 °F 70% 29.98 in - South 3.5 mph - N/A   Clear
9:50 AM 84.2 °F 88.4 °F 69.8 °F 62% 29.98 in - Variable 4.6 mph - N/A   Clear
10:20 AM 86.0 °F 89.4 °F 68.0 °F 55% 29.98 in - SSW 4.6 mph - N/A   Clear
10:50 AM 87.8 °F 92.6 °F 69.8 °F 55% 29.98 in - South 5.8 mph - N/A   Clear
11:20 AM 89.6 °F 94.7 °F 69.8 °F 52% 29.98 in - South 5.8 mph - N/A   Clear
11:50 AM 87.8 °F 92.6 °F 69.8 °F 55% 29.98 in - South 8.1 mph - N/A   Clear
12:20 PM 87.8 °F 93.8 °F 71.6 °F 58% 29.98 in - South 9.2 mph - N/A   Clear
12:50 PM 87.8 °F 95.6 °F 73.4 °F 62% 29.98 in - South 10.4 mph - N/A   Clear
1:20 PM 89.6 °F 98.2 °F 73.4 °F 59% 29.98 in - South 10.4 mph - N/A   Clear
1:50 PM 87.8 °F 93.8 °F 71.6 °F 58% 29.98 in - South 10.4 mph - N/A   Clear
2:20 PM 89.6 °F 93.4 °F 68.0 °F 49% 29.95 in - SSW 11.5 mph - N/A   Clear
2:50 PM 89.6 °F 93.4 °F 68.0 °F 49% 29.95 in - South 11.5 mph - N/A   Clear
3:20 PM 89.6 °F 96.2 °F 71.6 °F 55% 29.95 in - South 10.4 mph - N/A   Clear
3:50 PM 87.8 °F 93.8 °F 71.6 °F 58% 29.95 in - South 10.4 mph - N/A   Clear
4:20 PM 87.8 °F 95.6 °F 73.4 °F 62% 29.95 in - South 10.4 mph - N/A   Clear
4:50 PM 87.8 °F 95.6 °F 73.4 °F 62% 29.95 in - South 10.4 mph - N/A   Clear
5:20 PM 87.8 °F 91.4 °F 68.0 °F 52% 29.95 in - South 9.2 mph - N/A   Clear
5:50 PM 87.8 °F 92.6 °F 69.8 °F 55% 29.95 in - South 8.1 mph - N/A   Clear
6:20 PM 86.0 °F 90.4 °F 69.8 °F 58% 29.95 in - SSW 6.9 mph - N/A   Clear
6:50 PM 87.8 °F 92.6 °F 69.8 °F 55% 29.95 in - South 5.8 mph - N/A   Clear
7:20 PM 86.0 °F 90.4 °F 69.8 °F 58% 29.95 in - South 6.9 mph - N/A   Clear
7:50 PM 84.2 °F 89.6 °F 71.6 °F 66% 29.95 in - South 6.9 mph - N/A   Clear
8:20 PM 80.6 °F 85.4 °F 73.4 °F 79% 29.95 in - SSW 4.6 mph - N/A   Clear
8:50 PM 80.6 °F 85.4 °F 73.4 °F 79% 29.95 in - Variable 2.3 mph - N/A   Clear
9:20 PM 80.6 °F 85.4 °F 73.4 °F 79% 29.98 in - South 2.3 mph - N/A   Clear
9:50 PM 80.6 °F 84.6 °F 71.6 °F 74% 29.98 in - Calm Calm - N/A   Clear
10:20 PM 80.6 °F 83.2 °F 68.0 °F 65% 29.98 in - NE 4.6 mph - N/A   Clear
10:50 PM 78.8 °F - 68.0 °F 69% 29.98 in - NNE 5.8 mph - N/A   Clear
11:20 PM 78.8 °F - 68.0 °F 69% 29.98 in - Variable 2.3 mph - N/A   Clear
11:50 PM 77.0 °F - 68.0 °F 74% 29.98 in - Variable 1.2 mph - N/A   Clear